星链-30063 (STARLINK-30063 )

导读

STARLINK-30063是美国SpaceX公司星链(Starlink)卫星互联网项目的组网卫星,于2023年2月27日发射入轨。星链项目计划在近地轨道部署上万颗卫星,旨在为全球偏远地区提供低延迟高速宽带互联网服务。STARLINK-30063的发射是星链星座组网建设的一部分,助力星链不断扩展全球网络覆盖,目前星链已在全球六十多个国家和地区提供服务。

Basic Information
目录编号:
55713
目录名称:
STARLINK-30063
国际标识:
2023-026U
轨道中心:
EARTH
卫星名称:
星链-30063
卫星全名:
星链-30063 (STARLINK-30063 )
卫星状态:
已陨落 最后检测时间 2024-07-25
发射日期:
2023-02-27 UTC
国别 :
美国 (US)
星等 :
--
Orbit Information
数据来源 国际轨道数据
星历时间: 2024-07-24T16:27:53+0800
轨道信息已过期690天
半长轴: 6614.248km
偏心率: 0.0015511
轨道倾角: 42.986°
近地点辐角 247.857°
升交点赤经 72.833°
平近点角 112.066°
近地点: 225.853km
远地点: 246.373km
周期: 89.224分钟
每日圈数: 16.139204
Detailed Information
固有亮度:
5
最大亮度:
0.4
卫星平台:
Starlink v2.0 mini
覆盖范围:
全球
运营商:
太空探索技术公司
运营商所在国:
美国
制造商(研发单位):
太空探索技术公司
制造商所在国:
美国
使用方式:
暂无
Satellite Introduction
星链(Starlink)计划是由太空探索技术公司(SpaceX)提出的一个巨型低轨卫星互联网星座项目,计划在2019年至2024年间在太空搭建由约1.2万颗卫星组成的“星链”网络,其中1584颗将部署在地球上空550千米处的近地轨道,并从2020年开始工作。该卫星仍在工作。